This is the latest recevied weather packets stored in our database for station/object KA7GOO. If no packets are shown the sender has not sent any weather packets the latest 10 day(s).
| Time | Temp. | Humidity | Pressure | Rain* | Wind** | Luminosity | Snow |
|---|---|---|---|---|---|---|---|
| 1777518065 | - | - | 1005.5 hPa | 0 mm | - | - | - |
| 1777517106 | - | - | 1005.2 hPa | 0 mm | - | - | - |
| 1777516281 | - | - | 1005.2 hPa | 0 mm | - | - | - |
| 1777514402 | 25° C | 31% | 1004.9 hPa | 0 mm | - | - | - |
| 1777513574 | 25.56° C | 30% | 1004.9 hPa | 0 mm | - | - | - |
| 1777512602 | 26.67° C | 30% | 1005 hPa | 0 mm | - | - | - |
| 1777511771 | 26.67° C | 30% | 1005 hPa | 0 mm | - | - | - |
| 1777510868 | 27.22° C | 30% | 1005.1 hPa | 0 mm | - | - | - |
| 1777509972 | 27.78° C | 30% | 1005.4 hPa | 0 mm | - | - | - |
| 1777509108 | 27.78° C | 30% | 1005.4 hPa | 0 mm | - | - | - |
| 1777508188 | 27.78° C | 30% | 1005.5 hPa | 0 mm | - | - | - |
| 1777507216 | 27.78° C | 30% | 1005.7 hPa | 0 mm | - | - | - |
| 1777506388 | 27.22° C | 31% | 1005.7 hPa | 0 mm | - | - | - |
| 1777505473 | 27.78° C | 30% | 1006 hPa | 0 mm | - | - | - |
| 1777504573 | 27.78° C | 30% | 1006 hPa | 0 mm | - | - | - |
| 1777503692 | 27.22° C | 30% | 1006.3 hPa | 0 mm | - | - | - |
| 1777502764 | 27.22° C | 31% | 1006.7 hPa | 0 mm | - | - | - |
| 1777501899 | 27.22° C | 30% | 1006.8 hPa | 0 mm | - | - | - |
| 1777500965 | 26.67° C | 31% | 1007.3 hPa | 0 mm | - | - | - |
| 1777500085 | 26.67° C | 30% | 1007.5 hPa | 0 mm | - | - | - |
| 1777499188 | 26.67° C | 30% | 1007.9 hPa | 0 mm | - | - | - |
| 1777498268 | 26.11° C | 31% | 1008 hPa | 0 mm | - | - | - |
| 1777497392 | 26.11° C | 31% | 1008.3 hPa | 0 mm | - | - | - |
| 1777496494 | 26.11° C | 31% | 1008.6 hPa | 0 mm | - | - | - |
| 1777495598 | 26.11° C | 31% | 1008.6 hPa | 0 mm | - | - | - |
* Rain latest hour (hover to see other rain measurements)
** Current wind speed in m/s (hover to see current wind gust speed)